Regional Weather Roundup
Issued by NWS

Home | Current Version | Previous Version | Text Only | Print | Product List | Glossary Off
Versions: 1 2 3 4 5 6 7 8 9 10 11 12 13 14 15 16 17 18 19 20 21 22 23 24 25 26 27 28 29 30 31 32 33 34 35 36 37 38 39 40 41 42 43 44 45 46 47 48 49 50

000
ASUS43 KFSD 290910
RWRSD

WEATHER ROUNDUP FOR SOUTH DAKOTA
NATIONAL WEATHER SERVICE SIOUX FALLS SD
400 AM CDT THU JUN 29 2017

NOTE: "FAIR" INDICATES FEW OR NO CLOUDS BELOW 12,000 FEET WITH NO
SIGNIFICANT WEATHER AND/OR OBSTRUCTIONS TO VISIBILITY.


SDZ001>005-009-010-012>017-291000-
NORTHWEST AND NORTH CENTRAL SOUTH DAKOTA

CITY           SKY/WX    TMP DP  RH WIND       PRES   REMARKS
BUFFALO          N/A     57  51  80 SW8       29.75R
FAITH            N/A     62  52  69 W7        29.80R
MOBRIDGE       MOCLDY    64  45  49 SE3       29.74S
$$

SDZ012>016-024>037-041>051-057-063-072>074-291000-
SOUTHWEST AND SOUTH CENTRAL SOUTH DAKOTA

CITY           SKY/WX    TMP DP  RH WIND       PRES   REMARKS
RAPID CTY ARPT CLOUDY    58  50  75 N16       29.83R
PIERRE         CLOUDY    55  44  66 NE5       29.73F
CUSTER         CLEAR     48  40  73 NW5       29.91R
ELLSWORTH AFB  CLOUDY    60  53  77 N15       29.82R
PHILIP         CLEAR     57  51  80 E3        29.74S
PINE RIDGE     CLOUDY    53  52  96 NE3       29.78F
SPEARFISH      TSTM      54  54 100 CALM      29.87R
WINNER         FAIR      64  51  62 NE3       29.74R
$$

SDZ004>011-016>023-039-040-291000-
NORTHEAST SOUTH DAKOTA

CITY           SKY/WX    TMP DP  RH WIND       PRES   REMARKS
ABERDEEN       CLOUDY    49  47  93 CALM      29.75F
WATERTOWN      CLOUDY    55  55 100 CALM      29.73F FOG
BROOKINGS      PTCLDY    54  52  93 CALM      29.74F
SISSETON         N/A     56  56 100 CALM      29.73S
$$

SDZ017-020-022-023-036>040-048>070-291000-
SOUTHEAST SOUTH DAKOTA

CITY           SKY/WX    TMP DP  RH WIND       PRES   REMARKS
SIOUX FALLS    CLOUDY    57  57 100 CALM      29.72F
HURON          CLOUDY    54  49  83 N3        29.73F
CHAMBERLAIN    CLOUDY    65  47  50 NE3       29.73F
MITCHELL       CLOUDY    57  50  77 SW6       29.73F
YANKTON        CLOUDY    63  55  75 CALM      29.72F
$$

ABBREVIATIONS USED IN REMARKS
   TC - TEMPERATURE IN CELSIUS
  WCI - WIND CHILL INDEX
   HX - HEAT INDEX
  VSB - VISIBILITY




USA.gov is the U.S. government's official web portal to all federal, state and local government web resources and services.